FW6113 Weather Reports


Display with metric or nautical units.
time (UTC)temp
F
wind
direction
speed
MPH
gust
MPH
rain 1hr
in
rain 24hr
in
rain mn
in
humidity
%
barometer
mb
20260509002157 63 312 0.0 2.0 0.00 0.00 0.00 74 1015.2
20260509001655 63 316 0.0 1.0 0.00 0.00 0.00 73 1015.2
20260509001156 64 265 0.0 0.0 0.00 0.00 0.00 73 1015.2
20260509000652 64 265 0.0 0.0 0.00 0.00 0.00 72 1015.1
20260509000152 64 265 0.0 1.0 0.00 0.00 0.00 71 1015.0
20260508235653 65 264 0.0 2.0 0.00 0.00 0.00 71 1015.1
20260508235152 65 265 0.0 2.0 0.00 0.00 0.00 70 1014.9
20260508234649 65 271 0.0 2.0 0.00 0.00 0.00 67 1014.9
20260508234147 66 178 0.0 2.0 0.00 0.00 0.00 69 1014.8
20260508233908 66 188 0.0 2.0 0.00 0.00 0.00 67 1014.8
20260508233144 66 192 1.0 2.0 0.00 0.00 0.00 65 1014.9
20260508232903 67 197 1.0 3.0 0.00 0.00 0.00 65 1014.9
20260508232403 67 214 2.0 3.0 0.00 0.00 0.00 64 1015.0
20260508231906 67 194 1.0 3.0 0.00 0.00 0.00 63 1015.0
20260508231139 67 205 1.0 4.0 0.00 0.00 0.00 63 1015.1
20260508230855 67 220 1.0 4.0 0.00 0.00 0.00 62 1014.9
20260508230138 67 227 1.0 4.0 0.00 0.00 0.00 62 1014.8
20260508225639 67 246 2.0 5.0 0.00 0.00 0.00 63 1014.9
20260508225138 67 191 2.0 5.0 0.00 0.00 0.00 61 1014.9
20260508224635 68 265 2.0 4.0 0.00 0.00 0.00 61 1014.8
20260508224134 68 240 2.0 4.0 0.00 0.00 0.00 60 1014.9
20260508223634 68 196 2.0 5.0 0.00 0.00 0.00 60 1014.8
20260508223134 68 241 2.0 5.0 0.00 0.00 0.00 59 1015.0
20260508222634 68 219 2.0 6.0 0.00 0.00 0.00 59 1015.0
20260508222309 68 263 1.0 4.0 0.00 0.00 0.00 58 1014.8
20260508222202 68 217 2.0 6.0 0.00 0.00 0.00 59 1014.9
20260508221942 68 217 2.0 4.0 0.00 0.00 0.00 60 1014.9
20260508221123 69 227 1.0 4.0 0.00 0.00 0.00 60 1014.8
20260508220134 68 226 2.0 4.0 0.00 0.00 0.00 59 1014.8
20260508215634 68 242 2.0 4.0 0.00 0.00 0.00 58 1014.8
20260508215135 69 215 2.0 8.0 0.00 0.00 0.00 59 1014.8
20260508214634 69 264 2.0 8.0 0.00 0.00 0.00 57 1014.7
20260508214355 69 140 2.0 6.0 0.00 0.00 0.00 57 1014.7
20260508213634 69 214 3.0 10.0 0.00 0.00 0.00 56 1014.9
20260508213134 69 253 3.0 10.0 0.00 0.00 0.00 55 1014.9
20260508212634 69 224 2.0 10.0 0.00 0.00 0.00 56 1014.9
20260508212134 69 113 2.0 6.0 0.00 0.00 0.00 55 1014.8
20260508211634 70 190 3.0 8.0 0.00 0.00 0.00 54 1014.9
20260508211133 70 250 2.0 8.0 0.00 0.00 0.00 56 1015.1
20260508210634 70 107 2.0 5.0 0.00 0.00 0.00 55 1014.9
20260508210351 70 244 3.0 6.0 0.00 0.00 0.00 56 1014.9
20260508205632 70 225 3.0 6.0 0.00 0.00 0.00 54 1014.7
20260508205133 70 225 2.0 7.0 0.00 0.00 0.00 54 1015.0
20260508204632 70 150 2.0 7.0 0.00 0.00 0.00 54 1015.0
20260508204350 70 161 2.0 7.0 0.00 0.00 0.00 54 1015.1
20260508203630 70 186 3.0 7.0 0.00 0.00 0.00 53 1015.2
20260508203129 70 250 3.0 6.0 0.00 0.00 0.00 52 1015.0
20260508202853 70 259 3.0 9.0 0.00 0.00 0.00 51 1015.0
20260508202130 70 246 3.0 9.0 0.00 0.00 0.00 53 1015.2
20260508201629 71 291 3.0 7.0 0.00 0.00 0.00 50 1015.2
20260508201129 71 220 3.0 8.0 0.00 0.00 0.00 52 1015.3
20260508200628 71 270 3.0 8.0 0.00 0.00 0.00 51 1015.4
20260508200128 71 238 3.0 8.0 0.00 0.00 0.00 53 1015.4
20260508195628 72 228 3.0 7.0 0.00 0.00 0.00 50 1015.4
20260508195125 71 174 3.0 7.0 0.00 0.00 0.00 52 1015.5
20260508194626 71 173 3.0 8.0 0.00 0.00 0.00 51 1015.5
20260508194126 71 219 3.0 8.0 0.00 0.00 0.00 51 1015.7
20260508193626 71 222 2.0 6.0 0.00 0.00 0.00 51 1015.7
20260508193125 71 227 2.0 6.0 0.00 0.00 0.00 50 1015.8
20260508192625 70 251 3.0 6.0 0.00 0.00 0.00 52 1015.9
20260508192127 71 207 2.0 5.0 0.00 0.00 0.00 50 1015.9
20260508191626 71 63 3.0 9.0 0.00 0.00 0.00 53 1016.0
20260508191125 70 209 3.0 9.0 0.00 0.00 0.00 51 1016.0
20260508190622 70 243 2.0 7.0 0.00 0.00 0.00 53 1016.1
20260508190122 70 161 3.0 8.0 0.00 0.00 0.00 54 1016.1
20260508185623 69 257 3.0 8.0 0.00 0.00 0.00 53 1016.2
20260508185123 69 209 3.0 9.0 0.00 0.00 0.00 53 1016.5
20260508184622 70 226 3.0 9.0 0.00 0.00 0.00 51 1016.4
20260508184123 71 244 2.0 8.0 0.00 0.00 0.00 56 1016.5
20260508183622 70 234 3.0 8.0 0.00 0.00 0.00 53 1016.7
20260508183346 70 259 2.0 8.0 0.00 0.00 0.00 55 1016.7
20260508182619 70 251 2.0 8.0 0.00 0.00 0.00 52 1016.9
20260508182117 70 277 2.0 7.0 0.00 0.00 0.00 55 1016.9
20260508181845 70 286 2.0 7.0 0.00 0.00 0.00 52 1016.9
20260508181118 70 296 2.0 9.0 0.00 0.00 0.00 50 1017.1
20260508180617 70 292 3.0 9.0 0.00 0.00 0.00 50 1017.2
20260508180118 70 266 3.0 8.0 0.00 0.00 0.00 51 1017.1
20260508175616 69 267 4.0 10.0 0.00 0.00 0.00 52 1017.2
20260508175115 68 196 3.0 10.0 0.00 0.00 0.00 56 1017.1
20260508174616 68 32 1.0 4.0 0.00 0.00 0.00 54 1017.1
20260508174114 67 190 1.0 3.0 0.00 0.00 0.00 57 1017.3
20260508173835 68 181 2.0 6.0 0.00 0.00 0.00 53 1017.4
20260508173112 68 235 2.0 6.0 0.00 0.00 0.00 54 1017.6
20260508172611 68 58 2.0 8.0 0.00 0.00 0.00 55 1017.6
20260508172112 67 300 2.0 8.0 0.00 0.00 0.00 55 1017.5
20260508171608 67 118 2.0 7.0 0.00 0.00 0.00 53 1017.5
20260508171108 68 227 3.0 7.0 0.00 0.00 0.00 52 1017.8
20260508170607 67 162 4.0 9.0 0.00 0.00 0.00 54 1017.9
20260508170106 69 323 3.0 9.0 0.00 0.00 0.00 50 1017.9
20260508165605 69 108 3.0 8.0 0.00 0.00 0.00 54 1017.9
20260508165104 69 246 3.0 7.0 0.00 0.00 0.00 52 1017.9
20260508164604 70 281 2.0 6.0 0.00 0.00 0.00 49 1018.0
20260508164101 69 102 2.0 6.0 0.00 0.00 0.00 53 1018.0
20260508163602 69 48 3.0 7.0 0.00 0.00 0.00 54 1018.0
20260508163328 67 321 2.0 7.0 0.00 0.00 0.00 53 1018.2
20260508162558 66 216 1.0 6.0 0.00 0.00 0.00 60 1018.2
20260508162056 67 264 2.0 6.0 0.00 0.00 0.00 57 1018.3
20260508161553 68 247 2.0 6.0 0.00 0.00 0.00 54 1018.3
20260508161049 67 171 3.0 6.0 0.00 0.00 0.00 57 1018.3
20260508160548 66 247 2.0 6.0 0.00 0.00 0.00 55 1018.3
20260508160048 66 226 1.0 5.0 0.00 0.00 0.00 56 1018.4
20260508155547 66 209 1.0 5.0 0.00 0.00 0.00 56 1018.6
20260508155045 67 240 2.0 5.0 0.00 0.00 0.00 57 1018.7
20260508154545 66 248 2.0 6.0 0.00 0.00 0.00 58 1018.8
20260508154044 66 269 3.0 7.0 0.00 0.00 0.00 56 1018.8
20260508153541 67 269 3.0 7.0 0.00 0.00 0.00 55 1018.9
20260508153041 67 152 2.0 6.0 0.00 0.00 0.00 55 1018.9
20260508152541 67 304 2.0 6.0 0.00 0.00 0.00 57 1018.9
20260508152308 67 182 2.0 8.0 0.00 0.00 0.00 58 1018.8
20260508151757 66 126 3.0 8.0 0.00 0.00 0.00 56 1018.8
20260508151039 67 240 2.0 7.0 0.00 0.00 0.00 56 1018.9
20260508150538 66 290 2.0 4.0 0.00 0.00 0.00 59 1018.9
20260508150038 67 103 2.0 5.0 0.00 0.00 0.00 58 1018.8
20260508145757 65 56 2.0 5.0 0.00 0.00 0.00 61 1018.7
20260508145037 65 240 2.0 5.0 0.00 0.00 0.00 58 1018.8
20260508144538 65 238 2.0 5.0 0.00 0.00 0.00 58 1018.8
20260508144035 64 221 2.0 7.0 0.00 0.00 0.00 62 1018.7
20260508143535 65 227 2.0 7.0 0.00 0.00 0.00 59 1018.8
20260508143033 65 105 2.0 5.0 0.00 0.00 0.00 61 1018.7
20260508142749 64 101 2.0 5.0 0.00 0.00 0.00 62 1018.8
20260508142033 64 53 2.0 6.0 0.00 0.00 0.00 63 1018.8
20260508141534 64 51 2.0 6.0 0.00 0.00 0.00 62 1018.9
20260508141033 63 202 2.0 6.0 0.00 0.00 0.00 62 1018.9
20260508140533 63 241 2.0 6.0 0.00 0.00 0.00 65 1019.0
20260508140033 62 213 2.0 5.0 0.00 0.00 0.00 66 1019.0
20260508135533 62 219 1.0 4.0 0.00 0.00 0.00 66 1019.1
20260508135033 62 132 1.0 5.0 0.00 0.01 0.00 67 1019.1
20260508134530 62 120 1.0 5.0 0.00 0.01 0.00 68 1019.2
20260508134030 62 56 1.0 5.0 0.00 0.02 0.00 69 1019.2
20260508133529 61 42 1.0 5.0 0.00 0.03 0.00 68 1019.1
20260508133258 61 42 1.0 5.0 0.00 0.04 0.00 70 1019.2
20260508132529 60 38 1.0 5.0 0.00 0.05 0.00 71 1019.0
20260508132029 60 57 0.0 3.0 0.00 0.06 0.00 76 1019.1
20260508131529 60 53 0.0 3.0 0.00 0.08 0.00 75 1019.0
20260508131029 59 46 0.0 2.0 0.00 0.09 0.00 75 1019.0
20260508130530 58 44 1.0 2.0 0.00 0.09 0.00 78 1018.9
20260508130025 58 40 1.0 2.0 0.00 0.10 0.00 78 1018.8
20260508125526 58 35 0.0 2.0 0.00 0.10 0.00 79 1018.9
20260508125025 57 34 0.0 1.0 0.00 0.11 0.00 81 1018.7
20260508124525 56 34 0.0 3.0 0.00 0.11 0.00 82 1018.8
20260508124026 56 32 0.0 3.0 0.00 0.12 0.00 82 1018.7
20260508123753 55 12 0.0 0.0 0.00 0.12 0.00 86 1018.7
20260508123025 55 12 0.0 0.0 0.00 0.13 0.00 87 1018.6
20260508122525 55 12 0.0 0.0 0.00 0.13 0.00 88 1018.6
20260508122025 54 12 0.0 0.0 0.00 0.14 0.00 89 1018.5
20260508121525 53 12 0.0 0.0 0.00 0.15 0.00 90 1018.4
20260508121025 53 12 0.0 0.0 0.00 0.16 0.00 91 1018.4
20260508120525 52 12 0.0 0.0 0.00 0.17 0.00 92 1018.3
20260508120248 52 12 0.0 0.0 0.00 0.18 0.00 93 1018.2
20260508115525 51 12 0.0 0.0 0.00 0.18 0.00 93 1018.2
20260508115025 51 12 0.0 0.0 0.00 0.19 0.00 93 1018.2
20260508115007 50 12 0.0 0.0 0.00 0.20 0.00 93 1018.2
20260508114023 50 12 0.0 0.0 0.00 0.21 0.00 93 1018.0
20260508113523 50 12 0.0 0.0 0.00 0.22 0.00 93 1017.8
20260508113244 49 12 0.0 0.0 0.00 0.22 0.00 93 1017.8
20260508112517 49 12 0.0 1.0 0.00 0.23 0.00 93 1017.6
20260508112016 49 12 0.0 1.0 0.00 0.24 0.00 93 1017.6
20260508111517 49 192 0.0 0.0 0.00 0.25 0.00 93 1017.5
20260508111017 49 193 0.0 0.0 0.00 0.26 0.00 93 1017.5
20260508110517 49 193 0.0 0.0 0.00 0.26 0.00 93 1017.4
20260508110015 49 193 0.0 0.0 0.00 0.27 0.00 93 1017.4
20260508105515 48 193 0.0 0.0 0.00 0.28 0.00 93 1017.3
20260508105016 48 192 0.0 0.0 0.00 0.28 0.00 93 1017.1
20260508104513 48 192 0.0 0.0 0.00 0.28 0.00 92 1017.2
20260508104013 48 190 0.0 0.0 0.00 0.29 0.00 92 1017.2
20260508103513 48 192 0.0 0.0 0.00 0.30 0.00 93 1017.1
20260508103012 48 190 0.0 0.0 0.00 0.30 0.00 92 1017.1
20260508102513 48 190 0.0 0.0 0.00 0.31 0.00 92 1016.9
20260508102013 49 190 0.0 0.0 0.00 0.32 0.00 92 1016.8
20260508101513 49 190 0.0 0.0 0.00 0.33 0.00 92 1016.7
20260508101013 49 193 0.0 0.0 0.00 0.34 0.00 93 1016.7
20260508100513 49 193 0.0 1.0 0.00 0.35 0.00 93 1016.5
20260508100011 49 193 0.0 1.0 0.00 0.36 0.00 93 1016.3
20260508095510 49 193 0.0 1.0 0.00 0.37 0.00 92 1016.2
20260508095010 49 192 0.0 2.0 0.00 0.38 0.00 92 1016.2
20260508094945 49 197 0.0 2.0 0.00 0.39 0.00 92 1016.0
20260508094010 49 193 0.0 2.0 0.00 0.40 0.00 92 1016.0
20260508093510 49 196 0.0 2.0 0.00 0.41 0.00 92 1016.1
20260508093232 48 194 0.0 2.0 0.00 0.42 0.00 92 1016.1
20260508092510 49 192 0.0 2.0 0.00 0.44 0.00 92 1016.1
20260508092010 49 196 1.0 2.0 0.00 0.45 0.00 92 1016.1
20260508091510 49 196 1.0 2.0 0.00 0.47 0.00 92 1016.1
20260508091234 49 195 0.0 2.0 0.00 0.48 0.00 92 1016.1
20260508090510 49 194 0.0 0.0 0.00 0.49 0.00 92 1016.0
20260508090010 49 192 0.0 0.0 0.00 0.50 0.00 92 1016.0
20260508085734 49 192 0.0 0.0 0.00 0.52 0.00 92 1016.1
20260508085005 49 192 0.0 0.0 0.00 0.53 0.00 92 1016.0
20260508084506 49 192 0.0 0.0 0.00 0.55 0.00 92 1016.2
20260508084004 49 192 0.0 0.0 0.00 0.56 0.00 92 1016.1
20260508083500 49 191 0.0 0.0 0.00 0.57 0.00 92 1016.2
20260508082959 49 191 0.0 0.0 0.00 0.59 0.00 92 1016.0
20260508082500 49 191 0.0 0.0 0.00 0.60 0.00 92 1015.8
20260508081955 49 191 0.0 0.0 0.00 0.61 0.00 92 1015.9
20260508081454 49 191 0.0 0.0 0.00 0.62 0.00 92 1016.0
20260508080954 49 191 0.0 1.0 0.00 0.64 0.00 92 1016.0
20260508080452 49 190 0.0 1.0 0.00 0.65 0.00 92 1015.9
20260508075952 49 188 0.0 1.0 0.00 0.66 0.00 91 1015.9
20260508075452 49 184 0.0 1.0 0.00 0.67 0.00 91 1015.9
20260508074952 49 189 0.0 1.0 0.00 0.69 0.00 91 1015.8
20260508074450 49 187 0.0 1.0 0.00 0.70 0.00 91 1015.9
20260508073948 49 186 0.0 1.0 0.00 0.71 0.00 91 1015.8
20260508073705 49 185 0.0 1.0 0.00 0.73 0.00 91 1015.7
20260508072946 49 182 0.0 1.0 0.00 0.74 0.00 91 1015.6
20260508072444 49 181 0.0 1.0 0.00 0.76 0.00 91 1015.6
20260508071941 49 181 0.0 1.0 0.00 0.77 0.00 91 1015.6
20260508071438 49 182 0.0 1.0 0.00 0.78 0.00 91 1015.6
20260508070938 49 184 0.0 0.0 0.00 0.80 0.00 90 1015.8
20260508070435 50 184 0.0 0.0 0.00 0.81 0.00 90 1015.6
20260508065935 50 188 0.0 1.0 0.00 0.83 0.00 90 1015.5
20260508065433 50 188 0.0 1.0 0.00 0.84 0.00 90 1015.5
20260508064934 50 188 0.0 1.0 0.00 0.86 0.00 90 1015.5
20260508064433 50 185 0.0 1.0 0.00 0.87 0.00 90 1015.4
20260508063932 50 186 0.0 1.0 0.00 0.89 0.00 90 1015.5
20260508063427 50 184 0.0 1.0 0.00 0.90 0.00 89 1015.5
20260508063143 50 184 0.0 1.0 0.00 0.92 0.00 89 1015.4
20260508062424 51 182 0.0 1.0 0.00 0.93 0.00 89 1015.4
20260508061922 51 182 0.0 1.0 0.00 0.95 0.00 89 1015.4
20260508061421 51 182 0.0 1.0 0.00 0.97 0.00 89 1015.4
20260508061146 51 180 0.0 1.0 0.00 0.98 0.00 88 1015.3
20260508060421 51 179 0.0 1.0 0.00 1.00 0.00 88 1015.3
20260508055922 51 184 0.0 1.0 0.00 1.01 0.00 88 1015.5
20260508055422 51 179 0.0 1.0 0.00 1.03 0.00 89 1015.5
20260508054921 51 184 0.0 2.0 0.00 1.05 0.00 89 1015.5
20260508054421 51 189 0.0 2.0 0.00 1.06 0.00 88 1015.5
20260508053922 52 195 0.0 1.0 0.00 1.08 0.00 88 1015.6
20260508053421 52 195 0.0 1.0 0.00 1.10 0.00 88 1015.6
20260508052921 52 195 1.0 2.0 0.00 1.11 0.00 88 1015.5
20260508052421 52 200 1.0 2.0 0.00 1.13 0.00 88 1015.5
20260508052142 52 196 1.0 2.0 0.00 1.14 0.00 88 1015.5
20260508051422 52 190 0.0 2.0 0.00 1.16 0.00 87 1015.5
20260508050922 52 188 0.0 2.0 0.00 1.18 0.00 86 1015.6
20260508050419 52 188 0.0 2.0 0.00 1.19 0.00 86 1015.4
20260508045914 52 184 0.0 1.0 0.00 1.21 0.00 86 1015.4
20260508045414 52 184 0.0 1.0 0.00 1.22 0.00 86 1015.4
20260508044914 53 182 0.0 0.0 0.00 1.23 0.00 86 1015.3
20260508044413 53 182 0.0 0.0 0.00 1.24 0.00 86 1015.2
20260508043913 53 181 0.0 0.0 0.00 1.24 0.00 86 1015.2
20260508043413 53 181 0.0 0.0 0.00 1.24 0.00 86 1015.1
20260508043351 54 182 0.0 1.0 0.00 1.24 0.00 85 1015.1
20260508042635 54 182 0.0 2.0 0.00 1.24 0.00 85 1015.0
20260508041914 54 180 0.0 2.0 0.00 1.24 0.00 85 1014.9
20260508041409 54 180 0.0 1.0 0.00 1.25 0.00 84 1014.9
20260508040909 54 178 0.0 0.0 0.00 1.25 0.00 84 1014.7
20260508040409 54 178 0.0 0.0 0.00 1.25 0.00 84 1014.8
20260508035910 54 179 0.0 0.0 0.00 1.25 1.25 84 1014.8
20260508035407 54 179 0.0 0.0 0.00 1.25 1.25 83 1014.9
20260508034908 54 181 0.0 0.0 0.00 1.25 1.25 83 1015.1
20260508034405 55 181 0.0 0.0 0.00 1.25 1.25 83 1015.1
20260508033904 55 181 0.0 0.0 0.00 1.25 1.25 82 1015.0
20260508033402 55 181 0.0 0.0 0.00 1.25 1.25 82 1015.1
20260508032900 55 181 0.0 0.0 0.00 1.25 1.25 81 1014.9
20260508032356 55 181 0.0 0.0 0.00 1.25 1.25 81 1015.0
20260508032115 56 181 0.0 0.0 0.00 1.25 1.25 81 1015.0
20260508031356 56 181 0.0 0.0 0.00 1.25 1.25 81 1015.0
20260508030856 56 181 0.0 0.0 0.00 1.26 1.25 80 1015.0
20260508030353 56 181 0.0 0.0 0.00 1.27 1.25 79 1014.8
20260508025854 57 181 0.0 0.0 0.00 1.28 1.25 78 1014.8
20260508025354 57 181 0.0 0.0 0.00 1.29 1.25 77 1014.8
20260508024852 58 181 0.0 0.0 0.00 1.30 1.25 77 1014.8
20260508024351 58 181 0.0 2.0 0.00 1.31 1.25 75 1014.7
20260508023849 58 181 1.0 4.0 0.00 1.33 1.25 75 1014.6
20260508023605 58 164 1.0 4.0 0.00 1.34 1.25 75 1014.4
20260508023327 58 170 1.0 2.0 0.00 1.36 1.25 75 1014.2
20260508022346 58 180 0.0 3.0 0.00 1.37 1.25 76 1014.1
20260508021845 58 186 1.0 3.0 0.00 1.39 1.25 77 1014.1
20260508021343 59 167 0.0 2.0 0.00 1.41 1.25 76 1014.0
20260508020840 59 173 1.0 4.0 0.00 1.43 1.25 76 1014.1
20260508020340 59 140 1.0 4.0 0.00 1.45 1.25 76 1014.0
20260508015840 59 163 1.0 2.0 0.00 1.47 1.25 76 1013.9
20260508015339 59 147 0.0 2.0 0.00 1.49 1.25 77 1013.8
20260508014837 59 106 0.0 2.0 0.00 1.52 1.25 76 1013.5
20260508014600 60 91 1.0 3.0 0.00 1.54 1.25 77 1013.4
20260508013837 60 73 0.0 3.0 0.00 1.56 1.25 75 1013.3
20260508013334 60 126 0.0 2.0 0.00 1.59 1.25 75 1013.2
20260508012832 60 99 0.0 2.0 0.00 1.62 1.25 75 1013.1
20260508012332 60 82 1.0 3.0 0.00 1.65 1.25 75 1013.1
20260508011832 61 71 1.0 3.0 0.00 1.68 1.25 74 1013.0
20260508011330 61 66 1.0 4.0 0.00 1.71 1.25 74 1012.8
20260508010829 61 90 1.0 4.0 0.00 1.73 1.25 74 1012.7
20260508010555 61 83 1.0 3.0 0.00 1.74 1.25 74 1012.7
20260508005830 62 60 1.0 4.0 0.00 1.75 1.25 74 1012.6
20260508005328 62 53 1.0 4.0 0.00 1.76 1.25 74 1012.6
20260508005051 62 94 1.0 3.0 0.00 1.77 1.25 73 1012.4
20260508004328 62 89 1.0 3.0 0.00 1.79 1.25 73 1012.4
20260508003828 63 81 1.0 3.0 0.00 1.80 1.25 72 1012.3
20260508003328 63 76 1.0 4.0 0.00 1.81 1.25 72 1012.0
20260508003050 63 73 1.0 4.0 0.00 1.82 1.25 72 1012.1